| time (UTC) | temp F | wind direction | speed knots | gust knots | rain 1hr in | rain 24hr in | rain mn in | humidity % | barometer mb |
| 20260505193032 | 70 | 11 | 4.3 | 10.4 | 0.00 | 0.00 | 0.00 | 54 | 1014.5 |
| 20260505191536 | 69 | 27 | 3.5 | 8.7 | 0.00 | 0.00 | 0.00 | 55 | 1014.6 |
| 20260505190035 | 69 | 1 | 3.5 | 7.0 | 0.00 | 0.00 | 0.00 | 55 | 1014.6 |
| 20260505184529 | 68 | 2 | 4.3 | 8.7 | 0.00 | 0.00 | 0.00 | 55 | 1014.7 |
| 20260505183033 | 68 | 9 | 4.3 | 8.7 | 0.00 | 0.00 | 0.00 | 55 | 1014.8 |
| 20260505174530 | 66 | 7 | 3.5 | 8.7 | 0.00 | 0.00 | 0.00 | 59 | 1014.6 |
| 20260505173035 | 66 | 4 | 3.5 | 6.1 | 0.00 | 0.00 | 0.00 | 60 | 1014.6 |
| 20260505171535 | 65 | 354 | 2.6 | 6.1 | 0.00 | 0.00 | 0.00 | 61 | 1014.6 |
| 20260505170032 | 64 | 6 | 2.6 | 5.2 | 0.00 | 0.00 | 0.00 | 62 | 1014.6 |
| 20260505164530 | 63 | 3 | 3.5 | 6.1 | 0.00 | 0.00 | 0.00 | 64 | 1014.5 |
| 20260505163034 | 62 | 356 | 3.5 | 7.0 | 0.00 | 0.00 | 0.00 | 67 | 1014.5 |
| 20260505153035 | 57 | 1 | 2.6 | 5.2 | 0.00 | 0.00 | 0.00 | 78 | 1014.5 |
| 20260505150109 | 55 | 25 | 1.7 | 4.3 | 0.00 | 0.00 | 0.00 | 80 | 1014.3 |
| 20260505123109 | 47 | 154 | 2.6 | 4.3 | 0.00 | 0.00 | 0.00 | 90 | 1013.3 |
| 20260505121532 | 48 | 180 | 2.6 | 3.5 | 0.00 | 0.00 | 0.00 | 89 | 1013.3 |
| 20260505120036 | 48 | 181 | 1.7 | 2.6 | 0.00 | 0.00 | 0.00 | 89 | 1013.3 |
| 20260505114535 | 49 | 166 | 1.7 | 3.5 | 0.00 | 0.00 | 0.00 | 89 | 1013.2 |
| 20260505113029 | 49 | 162 | 1.7 | 3.5 | 0.00 | 0.00 | 0.00 | 88 | 1013.2 |
| 20260505111537 | 49 | 157 | 0.9 | 3.5 | 0.00 | 0.00 | 0.00 | 86 | 1013.0 |
| 20260505101536 | 50 | 166 | 2.6 | 3.5 | 0.00 | 0.00 | 0.00 | 84 | 1012.8 |
| 20260505100036 | 51 | 170 | 1.7 | 4.3 | 0.00 | 0.00 | 0.00 | 83 | 1012.8 |
| 20260505094536 | 52 | 169 | 1.7 | 3.5 | 0.00 | 0.00 | 0.00 | 80 | 1012.8 |
| 20260505093037 | 53 | 171 | 0.9 | 4.3 | 0.00 | 0.00 | 0.00 | 78 | 1012.7 |
| 20260505091536 | 54 | 169 | 0.9 | 2.6 | 0.00 | 0.00 | 0.00 | 77 | 1012.6 |
| 20260505090110 | 54 | 196 | 0.9 | 4.3 | 0.00 | 0.00 | 0.00 | 76 | 1012.5 |
| 20260505084536 | 55 | 148 | 0.9 | 5.2 | 0.00 | 0.00 | 0.00 | 75 | 1012.5 |
| 20260505083035 | 55 | 124 | 1.7 | 5.2 | 0.00 | 0.00 | 0.00 | 74 | 1012.5 |
| 20260505081533 | 55 | 134 | 3.5 | 6.1 | 0.00 | 0.00 | 0.00 | 75 | 1012.5 |
| 20260505080036 | 56 | 158 | 1.7 | 4.3 | 0.00 | 0.00 | 0.00 | 76 | 1012.5 |
| 20260505074536 | 56 | 144 | 3.5 | 6.1 | 0.00 | 0.00 | 0.00 | 79 | 1012.5 |
| 20260505073037 | 56 | 157 | 2.6 | 5.2 | 0.00 | 0.00 | 0.00 | 78 | 1012.5 |
| 20260505071608 | 58 | 106 | 2.6 | 4.3 | 0.00 | 0.00 | 0.00 | 75 | 1012.4 |
| 20260505070032 | 59 | 94 | 1.7 | 3.5 | 0.00 | 0.00 | 0.00 | 73 | 1012.4 |
| 20260505064532 | 60 | 122 | 1.7 | 4.3 | 0.00 | 0.00 | 0.00 | 71 | 1012.4 |
| 20260505063034 | 60 | 182 | 0.9 | 5.2 | 0.00 | 0.00 | 0.00 | 70 | 1012.4 |
| 20260505060036 | 62 | 105 | 1.7 | 3.5 | 0.00 | 0.00 | 0.00 | 65 | 1012.4 |
| 20260505054536 | 63 | 92 | 2.6 | 5.2 | 0.00 | 0.00 | 0.00 | 64 | 1012.4 |
| 20260505053031 | 64 | 259 | 3.5 | 10.4 | 0.00 | 0.00 | 0.00 | 63 | 1012.3 |
| 20260505051537 | 64 | 230 | 1.7 | 5.2 | 0.00 | 0.00 | 0.00 | 61 | 1012.3 |
| 20260505041536 | 65 | 175 | 1.7 | 4.3 | 0.00 | 0.00 | 0.00 | 53 | 1011.8 |
| 20260505040048 | 66 | 226 | 1.7 | 6.1 | 0.00 | 0.00 | 0.00 | 50 | 1011.5 |
| 20260505034650 | 67 | 194 | 2.6 | 6.1 | 0.00 | 0.00 | 0.00 | 48 | 1011.4 |
| 20260505033035 | 67 | 265 | 1.7 | 9.6 | 0.00 | 0.00 | 0.00 | 47 | 1011.2 |
| 20260505031529 | 68 | 239 | 2.6 | 7.8 | 0.00 | 0.00 | 0.00 | 45 | 1010.9 |
| 20260505030111 | 68 | 215 | 2.6 | 8.7 | 0.00 | 0.00 | 0.00 | 45 | 1010.8 |
| 20260505024649 | 69 | 262 | 2.6 | 9.6 | 0.00 | 0.00 | 0.00 | 43 | 1010.7 |
| 20260505023036 | 71 | 239 | 3.5 | 8.7 | 0.00 | 0.00 | 0.00 | 42 | 1010.6 |
| 20260505020035 | 73 | 302 | 1.7 | 5.2 | 0.00 | 0.00 | 0.00 | 40 | 1010.6 |
| 20260505014535 | 74 | 264 | 2.6 | 8.7 | 0.00 | 0.00 | 0.00 | 38 | 1010.5 |
| 20260505013031 | 74 | 280 | 3.5 | 13.0 | 0.00 | 0.00 | 0.00 | 37 | 1010.4 |
| 20260505011609 | 75 | 273 | 3.5 | 7.8 | 0.00 | 0.00 | 0.00 | 36 | 1010.4 |
| 20260505010035 | 76 | 294 | 3.5 | 9.6 | 0.00 | 0.00 | 0.00 | 34 | 1010.4 |
| 20260505003111 | 78 | 231 | 3.5 | 13.0 | 0.00 | 0.00 | 0.00 | 33 | 1010.3 |
| 20260505001536 | 78 | 264 | 2.6 | 14.8 | 0.00 | 0.00 | 0.00 | 34 | 1010.2 |
| 20260505000038 | 78 | 286 | 3.5 | 11.3 | 0.00 | 0.00 | 0.00 | 33 | 1010.2 |
| 20260504234534 | 79 | 281 | 3.5 | 11.3 | 0.00 | 0.00 | 0.00 | 33 | 1010.1 |
| 20260504231530 | 79 | 279 | 4.3 | 9.6 | 0.00 | 0.00 | 0.00 | 34 | 1010.2 |
| 20260504230142 | 79 | 268 | 3.5 | 10.4 | 0.00 | 0.00 | 0.00 | 34 | 1010.2 |
| 20260504224531 | 79 | 267 | 3.5 | 9.6 | 0.00 | 0.00 | 0.00 | 33 | 1010.4 |
| 20260504223109 | 79 | 237 | 4.3 | 14.8 | 0.00 | 0.00 | 0.00 | 32 | 1010.5 |
| 20260504221536 | 79 | 234 | 4.3 | 12.2 | 0.00 | 0.00 | 0.00 | 32 | 1010.5 |
| 20260504220035 | 80 | 276 | 4.3 | 11.3 | 0.00 | 0.00 | 0.00 | 32 | 1010.5 |
| 20260504214535 | 80 | 283 | 4.3 | 12.2 | 0.00 | 0.00 | 0.00 | 33 | 1010.6 |
| 20260504211537 | 79 | 289 | 5.2 | 14.8 | 0.00 | 0.00 | 0.00 | 33 | 1010.6 |
| 20260504210037 | 79 | 293 | 4.3 | 9.6 | 0.00 | 0.00 | 0.00 | 33 | 1010.7 |
| 20260504204536 | 80 | 287 | 4.3 | 10.4 | 0.00 | 0.00 | 0.00 | 33 | 1010.8 |
| 20260504203032 | 79 | 310 | 3.5 | 9.6 | 0.00 | 0.00 | 0.00 | 36 | 1010.9 |
| 20260504201534 | 78 | 314 | 5.2 | 10.4 | 0.00 | 0.00 | 0.00 | 38 | 1011.0 |
| 20260504200036 | 78 | 326 | 5.2 | 8.7 | 0.00 | 0.00 | 0.00 | 40 | 1011.0 |
| 20260504194533 | 78 | 11 | 5.2 | 9.6 | 0.00 | 0.00 | 0.00 | 41 | 1010.9 |